When you browse on this site, cookies collect data to enhance your experience and personalize the content and advertising you see.
Visit our Privacy Policy to learn more. By continuing to use the site, you agree to this use of cookies and data.

Hourly Weather San Miguel de Tucumán

Today, 2 July, Thursday

Time Temperature Precipitation Wind Pressure Humidity
00:00 +7°C° 0 mm 0 mps 721 mmHg 63%
01:00 +6°C° 0 mm 0 mps 721 mmHg 65%
02:00 +6°C° 0 mm 0 mps 721 mmHg 67%
03:00 +6°C° 0 mm 1 mps 721 mmHg 68%
04:00 +6°C° 0 mm 1 mps 721 mmHg 70%
05:00 +6°C° 0 mm 1 mps 721 mmHg 72%
06:00 +6°C° 0 mm 1 mps 722 mmHg 70%
07:00 +7°C° 0 mm 1 mps 723 mmHg 69%
08:00 +7°C° 0 mm 1 mps 723 mmHg 67%
09:00 +9°C° 0 mm 1 mps 723 mmHg 60%
10:00 +12°C° 0 mm 1 mps 723 mmHg 52%
11:00 +14°C° 0 mm 1 mps 723 mmHg 45%
12:00 +15°C° 0 mm 1 mps 722 mmHg 43%
13:00 +16°C° 0 mm 1 mps 722 mmHg 42%
14:00 +16°C° 0 mm 2 mps 721 mmHg 41%
15:00 +16°C° 0 mm 1 mps 721 mmHg 43%
16:00 +15°C° 0 mm 1 mps 721 mmHg 46%
17:00 +15°C° 0 mm 1 mps 721 mmHg 49%
18:00 +13°C° 0 mm 1 mps 721 mmHg 54%
19:00 +11°C° 0 mm 1 mps 721 mmHg 60%
20:00 +10°C° 0 mm 1 mps 722 mmHg 66%
21:00 +9°C° 0 mm 1 mps 722 mmHg 67%
22:00 +9°C° 0 mm 1 mps 722 mmHg 68%
23:00 +9°C° 0 mm 1 mps 722 mmHg 69%

Tomorrow, 3 July, Friday

Time Temperature Precipitation Wind Pressure Humidity
00:00 +8°C° 0 mm 1 mps 722 mmHg 70%
01:00 +8°C° 0 mm 1 mps 721 mmHg 71%
02:00 +8°C° 0 mm 1 mps 721 mmHg 72%
03:00 +8°C° 0 mm 1 mps 720 mmHg 73%
04:00 +7°C° 0 mm 1 mps 720 mmHg 75%
05:00 +6°C° 0 mm 0 mps 720 mmHg 76%
06:00 +6°C° 0 mm 0 mps 720 mmHg 74%
07:00 +7°C° 0 mm 0 mps 720 mmHg 71%
08:00 +8°C° 0 mm 1 mps 720 mmHg 69%
09:00 +11°C° 0 mm 1 mps 720 mmHg 60%
10:00 +14°C° 0 mm 1 mps 719 mmHg 51%
11:00 +16°C° 0 mm 1 mps 719 mmHg 42%
12:00 +19°C° 0 mm 1 mps 718 mmHg 39%
13:00 +20°C° 0 mm 1 mps 718 mmHg 36%
14:00 +22°C° 0 mm 1 mps 717 mmHg 33%
15:00 +21°C° 0 mm 1 mps 716 mmHg 37%
16:00 +20°C° 0 mm 1 mps 716 mmHg 40%
17:00 +19°C° 0 mm 1 mps 715 mmHg 43%
18:00 +16°C° 0 mm 1 mps 715 mmHg 48%
19:00 +14°C° 0 mm 1 mps 715 mmHg 53%
20:00 +12°C° 0 mm 1 mps 715 mmHg 58%
21:00 +12°C° 0 mm 1 mps 715 mmHg 58%
22:00 +12°C° 0 mm 1 mps 715 mmHg 59%
23:00 +11°C° 0 mm 1 mps 715 mmHg 60%

Day after tomorrow, 4 July, Saturday

Time Temperature Precipitation Wind Pressure Humidity
00:00 +11°C° 0 mm 1 mps 715 mmHg 60%
01:00 +11°C° 0 mm 1 mps 715 mmHg 59%
02:00 +11°C° 0 mm 1 mps 714 mmHg 59%
03:00 +10°C° 0 mm 1 mps 714 mmHg 58%
04:00 +10°C° 0 mm 1 mps 714 mmHg 57%
05:00 +10°C° 0 mm 1 mps 714 mmHg 57%
06:00 +11°C° 0 mm 1 mps 714 mmHg 54%
07:00 +11°C° 0 mm 1 mps 714 mmHg 52%
08:00 +12°C° 0 mm 1 mps 714 mmHg 49%
09:00 +15°C° 0 mm 1 mps 714 mmHg 43%
10:00 +19°C° 0 mm 1 mps 715 mmHg 36%
11:00 +22°C° 0 mm 1 mps 715 mmHg 30%
12:00 +24°C° 0 mm 1 mps 714 mmHg 28%
13:00 +25°C° 0 mm 1 mps 713 mmHg 27%
14:00 +26°C° 0 mm 2 mps 712 mmHg 26%
15:00 +24°C° 0 mm 1 mps 712 mmHg 29%
16:00 +23°C° 0 mm 1 mps 712 mmHg 33%
17:00 +22°C° 0 mm 1 mps 712 mmHg 37%
18:00 +20°C° 0 mm 1 mps 713 mmHg 40%
19:00 +18°C° 0 mm 1 mps 713 mmHg 42%
20:00 +15°C° 0 mm 1 mps 713 mmHg 45%
21:00 +15°C° 0 mm 1 mps 713 mmHg 45%
22:00 +15°C° 0 mm 1 mps 714 mmHg 45%
23:00 +14°C° 0 mm 1 mps 714 mmHg 44%

5 July, Sunday

Time Temperature Precipitation Wind Pressure Humidity
00:00 +14°C° 0 mm 1 mps 714 mmHg 45%
01:00 +13°C° 0 mm 2 mps 715 mmHg 46%
02:00 +13°C° 0 mm 2 mps 715 mmHg 46%
03:00 +12°C° 0 mm 2 mps 716 mmHg 48%
04:00 +12°C° 0 mm 2 mps 716 mmHg 50%
05:00 +12°C° 0 mm 2 mps 717 mmHg 52%
06:00 +12°C° 0 mm 2 mps 718 mmHg 55%
07:00 +12°C° 0 mm 2 mps 719 mmHg 57%
08:00 +12°C° 0 mm 2 mps 720 mmHg 60%
09:00 +13°C° 0 mm 2 mps 721 mmHg 55%
10:00 +15°C° 0 mm 2 mps 721 mmHg 51%
11:00 +17°C° 0 mm 2 mps 722 mmHg 46%
12:00 +17°C° 0 mm 2 mps 721 mmHg 45%
13:00 +18°C° 0 mm 3 mps 721 mmHg 44%
14:00 +19°C° 0 mm 3 mps 720 mmHg 43%
15:00 +18°C° 0 mm 3 mps 721 mmHg 45%
16:00 +17°C° 0 mm 2 mps 721 mmHg 48%
17:00 +16°C° 0 mm 2 mps 721 mmHg 51%
18:00 +15°C° 0 mm 2 mps 721 mmHg 56%
19:00 +14°C° 0 mm 1 mps 722 mmHg 61%
20:00 +12°C° 0 mm 1 mps 722 mmHg 67%
21:00 +12°C° 0 mm 1 mps 723 mmHg 67%
22:00 +13°C° 0 mm 1 mps 723 mmHg 66%
23:00 +13°C° 0 mm 1 mps 723 mmHg 66%

6 July, Monday

Time Temperature Precipitation Wind Pressure Humidity
00:00 +12°C° 0 mm 1 mps 723 mmHg 67%
01:00 +12°C° 0 mm 1 mps 723 mmHg 68%
02:00 +12°C° 0 mm 1 mps 723 mmHg 68%
03:00 +11°C° 0 mm 1 mps 722 mmHg 69%
04:00 +11°C° 0 mm 1 mps 722 mmHg 69%
05:00 +11°C° 0 mm 1 mps 722 mmHg 70%
06:00 +11°C° 0 mm 1 mps 722 mmHg 70%
07:00 +10°C° 0 mm 1 mps 722 mmHg 70%
08:00 +10°C° 0 mm 1 mps 723 mmHg 70%
09:00 +11°C° 0 mm 1 mps 722 mmHg 65%
10:00 +12°C° 0 mm 1 mps 722 mmHg 60%
11:00 +13°C° 0 mm 1 mps 721 mmHg 55%
12:00 +13°C° 0 mm 1 mps 720 mmHg 53%
13:00 +14°C° 0 mm 1 mps 719 mmHg 51%
14:00 +15°C° 0 mm 2 mps 719 mmHg 49%
15:00 +14°C° 0 mm 2 mps 718 mmHg 50%
16:00 +14°C° 0 mm 2 mps 718 mmHg 50%
17:00 +13°C° 0 mm 2 mps 718 mmHg 51%
18:00 +12°C° 0 mm 2 mps 718 mmHg 53%
19:00 +11°C° 0 mm 1 mps 719 mmHg 54%
20:00 +10°C° 0 mm 1 mps 719 mmHg 56%
21:00 +10°C° 0 mm 1 mps 719 mmHg 57%
22:00 +9°C° 0 mm 1 mps 719 mmHg 57%
23:00 +9°C° 0 mm 1 mps 720 mmHg 58%

7 July, Tuesday

Time Temperature Precipitation Wind Pressure Humidity
00:00 +9°C° 0 mm 1 mps 720 mmHg 58%
01:00 +9°C° 0 mm 1 mps 719 mmHg 59%
02:00 +8°C° 0 mm 1 mps 719 mmHg 60%
03:00 +8°C° 0 mm 1 mps 719 mmHg 62%
04:00 +8°C° 0 mm 1 mps 719 mmHg 64%
05:00 +7°C° 0 mm 1 mps 719 mmHg 66%
06:00 +7°C° 0 mm 1 mps 720 mmHg 66%
07:00 +7°C° 0 mm 1 mps 720 mmHg 67%
08:00 +6°C° 0 mm 1 mps 721 mmHg 68%
09:00 +7°C° 0 mm 2 mps 721 mmHg 61%
10:00 +9°C° 0 mm 2 mps 721 mmHg 54%
11:00 +11°C° 0 mm 3 mps 721 mmHg 47%
12:00 +12°C° 0 mm 3 mps 721 mmHg 45%
13:00 +12°C° 0 mm 3 mps 721 mmHg 43%
14:00 +13°C° 0 mm 3 mps 720 mmHg 41%
15:00 +13°C° 0 mm 3 mps 720 mmHg 43%
16:00 +12°C° 0 mm 3 mps 721 mmHg 45%
17:00 +13°C° 0 mm 2 mps 721 mmHg 47%
18:00 +10°C° 0 mm 2 mps 722 mmHg 52%
19:00 +10°C° 0 mm 1 mps 722 mmHg 58%
20:00 +8°C° 0 mm 1 mps 723 mmHg 63%
21:00 +8°C° 0 mm 1 mps 724 mmHg 65%
22:00 +7°C° 0 mm 1 mps 724 mmHg 66%
23:00 +7°C° 0 mm 1 mps 725 mmHg 68%
Show more